STARLINK-1927 (47181 NORAD) Tracking and Keplerian Element Data

This shows tracking and keplerian element data for the satellite.

Feedback or suggestion? Click here.




ElementValue
Catalog47181
NameSTARLINK-1927
Epoch Orbit1589
Epoch Day60.91667824
Epoch Year2021
RAAN239.3868
Inclination53.0482
Eccentricity0.0001375
Argument of Perigee61.7235
Mean Anonmoly90.7281
Mean Motion15.46570216
Decay Rate-0.004813
L11 47181U 20088BM 21060.91667824 -.00481300 00000-0 -10114-1 0 9997
L22 47181 53.0482 239.3868 0001375 61.7235 90.7281 15.46570216 15891

Live tracking and technical data element details for STARLINK-1927 (NORAD 47181). STARLINK-1927 can be tracked NOW for your location showing map with azimuth and elevation plus other details from your city location.

Track the satellite on the map from your city or location and see movement details for azimuth, elevation, latitude, longitude, range, height, and movement on the map or in text.







IsCatalogInMostPopularTable: catalog: 47181, numindb: 42
Update: records affected: 1



GetName: 47181 STARLINK-1927

Hit Count: updated at: Tue, 02 Mar 2021 14:16:03 GMT